When you browse on this site, cookies collect data to enhance your experience and personalize the content and advertising you see.
Visit our Privacy Policy to learn more. By continuing to use the site, you agree to this use of cookies and data.
  • In Austria
  • List of Countries
  • For 7 days
  • Water Temperature
  • Weather Map
  • News
  • Weather Widgets
  • user-avatar
    Login

    Hourly Weather Rojtokmuzsaj

    Today, 12 December, Thursday

    Time Temperature Precipitation Wind Pressure Humidity
    00:00 -2°C° 0 mm 3 mps 743 mmHg 74%
    01:00 -2°C° 0 mm 3 mps 743 mmHg 78%
    02:00 -2°C° 0 mm 2 mps 743 mmHg 80%
    03:00 -2°C° 0 mm 2 mps 742 mmHg 81%
    04:00 -2°C° 0 mm 2 mps 741 mmHg 83%
    05:00 0°C° 0 mm 1 mps 741 mmHg 84%
    06:00 +1°C° 0 mm 1 mps 741 mmHg 85%
    07:00 +1°C° 0 mm 1 mps 742 mmHg 81%
    08:00 +1°C° 0 mm 1 mps 741 mmHg 82%
    09:00 +2°C° 0 mm 1 mps 741 mmHg 82%
    10:00 +2°C° 0 mm 1 mps 741 mmHg 83%
    11:00 +2°C° 0.2 mm 1 mps 741 mmHg 86%
    12:00 +2°C° 0.2 mm 1 mps 741 mmHg 89%
    13:00 +3°C° 0.2 mm 1 mps 740 mmHg 93%
    14:00 +2°C° 0.4 mm 1 mps 740 mmHg 94%
    15:00 +2°C° 0.4 mm 1 mps 739 mmHg 96%
    16:00 +2°C° 0.4 mm 1 mps 739 mmHg 98%
    17:00 +2°C° 0.5 mm 1 mps 738 mmHg 98%
    18:00 +2°C° 0.5 mm 1 mps 738 mmHg 98%
    19:00 +2°C° 0.5 mm 1 mps 738 mmHg 98%
    20:00 +2°C° 0.2 mm 1 mps 738 mmHg 98%
    21:00 +2°C° 0.2 mm 1 mps 737 mmHg 98%
    22:00 +2°C° 0.2 mm 1 mps 736 mmHg 98%
    23:00 +2°C° 0.1 mm 1 mps 736 mmHg 98%

    Tomorrow, 13 December, Friday

    Time Temperature Precipitation Wind Pressure Humidity
    00:00 +2°C° 0.1 mm 1 mps 735 mmHg 98%
    01:00 +2°C° 0.1 mm 1 mps 735 mmHg 98%
    02:00 +1°C° 0 mm 2 mps 734 mmHg 97%
    03:00 0°C° 0 mm 3 mps 733 mmHg 96%
    04:00 -1°C° 0 mm 4 mps 732 mmHg 95%
    05:00 -1°C° 0 mm 5 mps 731 mmHg 94%
    06:00 -2°C° 0 mm 6 mps 730 mmHg 92%
    07:00 -2°C° 0 mm 7 mps 730 mmHg 90%
    08:00 -2°C° 0 mm 7 mps 729 mmHg 87%
    09:00 -1°C° 0 mm 8 mps 728 mmHg 85%
    10:00 -1°C° 0 mm 9 mps 728 mmHg 83%
    11:00 0°C° 0 mm 9 mps 727 mmHg 81%
    12:00 +1°C° 0 mm 9 mps 726 mmHg 78%
    13:00 +1°C° 0 mm 10 mps 726 mmHg 76%
    14:00 +1°C° 0 mm 8 mps 726 mmHg 78%
    15:00 +2°C° 0 mm 7 mps 726 mmHg 80%
    16:00 +1°C° 0 mm 5 mps 726 mmHg 82%
    17:00 +1°C° 0.2 mm 4 mps 727 mmHg 85%
    18:00 +3°C° 0.2 mm 2 mps 727 mmHg 87%
    19:00 +4°C° 0.2 mm 1 mps 728 mmHg 90%
    20:00 +3°C° 0 mm 1 mps 728 mmHg 89%
    21:00 +3°C° 0 mm 1 mps 729 mmHg 89%
    22:00 +3°C° 0 mm 1 mps 729 mmHg 88%
    23:00 +2°C° 0 mm 2 mps 730 mmHg 86%

    Day after tomorrow, 14 December, Saturday

    Time Temperature Precipitation Wind Pressure Humidity
    00:00 +2°C° 0 mm 3 mps 731 mmHg 84%
    01:00 +2°C° 0 mm 3 mps 732 mmHg 82%
    02:00 +1°C° 0 mm 5 mps 732 mmHg 78%
    03:00 +2°C° 0 mm 6 mps 733 mmHg 74%
    04:00 +2°C° 0 mm 7 mps 733 mmHg 70%
    05:00 +2°C° 0 mm 7 mps 734 mmHg 71%
    06:00 +2°C° 0 mm 6 mps 735 mmHg 72%
    07:00 +2°C° 0 mm 5 mps 735 mmHg 73%
    08:00 +2°C° 0 mm 5 mps 736 mmHg 72%
    09:00 +4°C° 0 mm 4 mps 736 mmHg 71%
    10:00 +4°C° 0 mm 3 mps 737 mmHg 70%
    11:00 +5°C° 0 mm 3 mps 737 mmHg 69%
    12:00 +5°C° 0 mm 3 mps 738 mmHg 68%
    13:00 +6°C° 0 mm 4 mps 738 mmHg 66%
    14:00 +5°C° 0 mm 4 mps 738 mmHg 71%
    15:00 +4°C° 0 mm 4 mps 739 mmHg 75%
    16:00 +3°C° 0 mm 4 mps 739 mmHg 80%
    17:00 +3°C° 0 mm 4 mps 740 mmHg 79%
    18:00 +3°C° 0 mm 4 mps 741 mmHg 79%
    19:00 +3°C° 0 mm 3 mps 741 mmHg 79%
    20:00 +3°C° 0 mm 3 mps 742 mmHg 78%
    21:00 +3°C° 0 mm 3 mps 743 mmHg 77%
    22:00 +3°C° 0 mm 3 mps 744 mmHg 76%
    23:00 +3°C° 0 mm 3 mps 744 mmHg 76%

    15 December, Sunday

    Time Temperature Precipitation Wind Pressure Humidity
    00:00 +3°C° 0 mm 3 mps 744 mmHg 76%
    01:00 +3°C° 0 mm 3 mps 745 mmHg 77%
    02:00 +3°C° 0 mm 3 mps 745 mmHg 77%
    03:00 +1°C° 0 mm 4 mps 745 mmHg 77%
    04:00 +1°C° 0 mm 4 mps 745 mmHg 77%
    05:00 +1°C° 0 mm 4 mps 745 mmHg 77%
    06:00 +1°C° 0 mm 4 mps 745 mmHg 77%
    07:00 0°C° 0 mm 5 mps 745 mmHg 77%
    08:00 +1°C° 0 mm 5 mps 745 mmHg 77%
    09:00 +1°C° 0 mm 5 mps 745 mmHg 77%
    10:00 +2°C° 0 mm 5 mps 745 mmHg 76%
    11:00 +3°C° 0 mm 5 mps 745 mmHg 77%
    12:00 +3°C° 0 mm 5 mps 746 mmHg 77%
    13:00 +5°C° 0 mm 4 mps 746 mmHg 77%
    14:00 +4°C° 0 mm 4 mps 746 mmHg 80%
    15:00 +3°C° 0 mm 3 mps 746 mmHg 83%
    16:00 +3°C° 0 mm 3 mps 746 mmHg 87%
    17:00 +3°C° 0 mm 2 mps 747 mmHg 87%
    18:00 +3°C° 0 mm 2 mps 747 mmHg 87%
    19:00 +3°C° 0 mm 2 mps 747 mmHg 87%
    20:00 +3°C° 0 mm 2 mps 748 mmHg 86%
    21:00 +3°C° 0 mm 1 mps 748 mmHg 86%
    22:00 +3°C° 0 mm 1 mps 748 mmHg 85%
    23:00 +3°C° 0 mm 1 mps 748 mmHg 85%

    16 December, Monday

    Time Temperature Precipitation Wind Pressure Humidity
    00:00 +2°C° 0 mm 2 mps 748 mmHg 86%
    01:00 +2°C° 0 mm 2 mps 748 mmHg 86%
    02:00 +2°C° 0 mm 2 mps 748 mmHg 87%
    03:00 +1°C° 0 mm 2 mps 748 mmHg 88%
    04:00 +1°C° 0 mm 2 mps 748 mmHg 88%
    05:00 +1°C° 0 mm 2 mps 748 mmHg 89%
    06:00 +1°C° 0 mm 2 mps 748 mmHg 89%
    07:00 +1°C° 0 mm 2 mps 748 mmHg 90%
    08:00 +1°C° 0 mm 3 mps 748 mmHg 88%
    09:00 +2°C° 0 mm 3 mps 748 mmHg 86%
    10:00 +3°C° 0 mm 3 mps 748 mmHg 84%
    11:00 +5°C° 0 mm 4 mps 747 mmHg 82%
    12:00 +6°C° 0 mm 4 mps 747 mmHg 80%
    13:00 +7°C° 0 mm 4 mps 746 mmHg 78%
    14:00 +7°C° 0 mm 4 mps 746 mmHg 80%
    15:00 +6°C° 0 mm 4 mps 746 mmHg 83%
    16:00 +6°C° 0 mm 4 mps 746 mmHg 86%
    17:00 +6°C° 0 mm 5 mps 745 mmHg 86%
    18:00 +6°C° 0 mm 5 mps 745 mmHg 85%
    19:00 +6°C° 0 mm 5 mps 745 mmHg 85%
    20:00 +6°C° 0 mm 5 mps 745 mmHg 84%
    21:00 +6°C° 0 mm 5 mps 745 mmHg 84%
    22:00 +6°C° 0 mm 5 mps 745 mmHg 84%
    23:00 +6°C° 0 mm 5 mps 745 mmHg 84%

    17 December, Tuesday

    Time Temperature Precipitation Wind Pressure Humidity
    00:00 +6°C° 0 mm 5 mps 745 mmHg 84%
    01:00 +6°C° 0 mm 4 mps 745 mmHg 83%
    02:00 +6°C° 0 mm 4 mps 745 mmHg 84%
    03:00 +6°C° 0 mm 4 mps 745 mmHg 84%
    04:00 +6°C° 0 mm 4 mps 745 mmHg 84%
    05:00 +6°C° 0 mm 4 mps 745 mmHg 83%
    06:00 +6°C° 0 mm 5 mps 745 mmHg 82%
    07:00 +7°C° 0 mm 5 mps 745 mmHg 80%
    08:00 +8°C° 0 mm 6 mps 745 mmHg 78%
    09:00 +8°C° 0 mm 7 mps 746 mmHg 76%
    10:00 +9°C° 0 mm 7 mps 746 mmHg 74%
    11:00 +10°C° 0 mm 8 mps 746 mmHg 72%
    12:00 +11°C° 0 mm 9 mps 746 mmHg 70%
    13:00 +12°C° 0 mm 10 mps 745 mmHg 68%
    14:00 +12°C° 0 mm 10 mps 746 mmHg 70%
    15:00 +12°C° 0 mm 10 mps 746 mmHg 71%
    16:00 +11°C° 0 mm 10 mps 746 mmHg 73%
    17:00 +11°C° 0 mm 9 mps 746 mmHg 75%
    18:00 +11°C° 0 mm 9 mps 747 mmHg 77%
    19:00 +10°C° 0 mm 8 mps 747 mmHg 79%
    20:00 +10°C° 0 mm 7 mps 748 mmHg 79%
    21:00 +10°C° 0 mm 7 mps 748 mmHg 80%
    22:00 +10°C° 0 mm 6 mps 749 mmHg 80%
    23:00 +9°C° 0 mm 5 mps 749 mmHg 81%
    Show more